Previsão horária em Abdulovka

Hoje, 12 Abril, Segunda-feira

Tempo Temperatura Precipitação Vento Pressão Humidade
00:00 +7°C° 0 mm 3 m/s 752 mmHg 93%
01:00 +7°C° 0 mm 3 m/s 753 mmHg 93%
02:00 +7°C° 0 mm 3 m/s 753 mmHg 92%
03:00 +5°C° 0 mm 3 m/s 753 mmHg 93%
04:00 +5°C° 0 mm 3 m/s 753 mmHg 93%
05:00 +5°C° 0 mm 3 m/s 753 mmHg 93%
06:00 +5°C° 0 mm 3 m/s 754 mmHg 92%
07:00 +8°C° 0 mm 3 m/s 754 mmHg 87%
08:00 +10°C° 0 mm 3 m/s 754 mmHg 81%
09:00 +12°C° 0 mm 4 m/s 755 mmHg 76%
10:00 +13°C° 0 mm 4 m/s 755 mmHg 70%
11:00 +15°C° 0 mm 5 m/s 755 mmHg 63%
12:00 +17°C° 0 mm 5 m/s 755 mmHg 57%
13:00 +19°C° 0 mm 5 m/s 755 mmHg 55%
14:00 +19°C° 0 mm 5 m/s 755 mmHg 52%
15:00 +20°C° 0 mm 5 m/s 755 mmHg 50%
16:00 +19°C° 0 mm 5 m/s 755 mmHg 54%
17:00 +18°C° 0 mm 4 m/s 755 mmHg 59%
18:00 +17°C° 0 mm 4 m/s 754 mmHg 64%
19:00 +14°C° 0 mm 4 m/s 755 mmHg 68%
20:00 +13°C° 0 mm 4 m/s 755 mmHg 71%
21:00 +12°C° 0 mm 4 m/s 755 mmHg 75%
22:00 +11°C° 0 mm 3 m/s 755 mmHg 74%
23:00 +11°C° 0 mm 3 m/s 755 mmHg 73%

Amanhã, 13 Abril, Terça-feira

Tempo Temperatura Precipitação Vento Pressão Humidade
00:00 +10°C° 0 mm 3 m/s 755 mmHg 72%
01:00 +9°C° 0 mm 3 m/s 755 mmHg 73%
02:00 +9°C° 0 mm 3 m/s 755 mmHg 73%
03:00 +8°C° 0 mm 3 m/s 755 mmHg 73%
04:00 +8°C° 0 mm 3 m/s 756 mmHg 73%
05:00 +8°C° 0 mm 3 m/s 756 mmHg 73%
06:00 +7°C° 0 mm 3 m/s 756 mmHg 74%
07:00 +8°C° 0 mm 4 m/s 756 mmHg 67%
08:00 +11°C° 0 mm 4 m/s 756 mmHg 60%
09:00 +13°C° 0 mm 5 m/s 756 mmHg 53%
10:00 +14°C° 0 mm 5 m/s 756 mmHg 47%
11:00 +15°C° 0 mm 5 m/s 756 mmHg 42%
12:00 +17°C° 0 mm 5 m/s 755 mmHg 37%
13:00 +17°C° 0 mm 5 m/s 755 mmHg 35%
14:00 +19°C° 0 mm 5 m/s 755 mmHg 33%
15:00 +19°C° 0 mm 5 m/s 755 mmHg 31%
16:00 +17°C° 0 mm 5 m/s 754 mmHg 36%
17:00 +17°C° 0 mm 4 m/s 754 mmHg 42%
18:00 +15°C° 0 mm 4 m/s 754 mmHg 47%
19:00 +13°C° 0 mm 4 m/s 754 mmHg 50%
20:00 +12°C° 0 mm 4 m/s 754 mmHg 53%
21:00 +11°C° 0 mm 3 m/s 754 mmHg 56%
22:00 +10°C° 0 mm 3 m/s 754 mmHg 59%
23:00 +9°C° 0 mm 3 m/s 753 mmHg 62%

Depois de amanhã, 14 Abril, Quarta-feira

Tempo Temperatura Precipitação Vento Pressão Humidade
00:00 +8°C° 0 mm 3 m/s 753 mmHg 65%
01:00 +8°C° 0 mm 3 m/s 753 mmHg 66%
02:00 +7°C° 0 mm 3 m/s 753 mmHg 68%
03:00 +7°C° 0 mm 3 m/s 753 mmHg 69%
04:00 +7°C° 0 mm 3 m/s 752 mmHg 70%
05:00 +5°C° 0 mm 3 m/s 752 mmHg 70%
06:00 +5°C° 0 mm 3 m/s 752 mmHg 71%
07:00 +7°C° 0 mm 4 m/s 752 mmHg 66%
08:00 +9°C° 0 mm 5 m/s 752 mmHg 62%
09:00 +12°C° 0 mm 5 m/s 752 mmHg 57%
10:00 +13°C° 0 mm 6 m/s 751 mmHg 53%
11:00 +15°C° 0 mm 6 m/s 751 mmHg 48%
12:00 +16°C° 0 mm 6 m/s 751 mmHg 43%
13:00 +17°C° 0 mm 6 m/s 750 mmHg 42%
14:00 +17°C° 0 mm 6 m/s 750 mmHg 40%
15:00 +19°C° 0 mm 6 m/s 749 mmHg 38%
16:00 +17°C° 0 mm 5 m/s 749 mmHg 43%
17:00 +17°C° 0 mm 4 m/s 749 mmHg 48%
18:00 +16°C° 0 mm 3 m/s 748 mmHg 53%
19:00 +14°C° 0 mm 3 m/s 748 mmHg 59%
20:00 +12°C° 0 mm 3 m/s 748 mmHg 65%
21:00 +11°C° 0 mm 3 m/s 748 mmHg 71%
22:00 +10°C° 0 mm 3 m/s 748 mmHg 74%
23:00 +10°C° 0 mm 3 m/s 748 mmHg 78%

15 Abril, Quinta-feira

Tempo Temperatura Precipitação Vento Pressão Humidade
00:00 +9°C° 0 mm 3 m/s 748 mmHg 81%
01:00 +9°C° 0 mm 3 m/s 748 mmHg 81%
02:00 +9°C° 0 mm 3 m/s 747 mmHg 82%
03:00 +8°C° 0 mm 2 m/s 747 mmHg 83%
04:00 +8°C° 0 mm 2 m/s 747 mmHg 83%
05:00 +8°C° 0 mm 2 m/s 747 mmHg 84%
06:00 +8°C° 0 mm 2 m/s 747 mmHg 84%
07:00 +10°C° 0 mm 3 m/s 747 mmHg 76%
08:00 +12°C° 0 mm 3 m/s 747 mmHg 69%
09:00 +14°C° 0 mm 3 m/s 747 mmHg 61%
10:00 +16°C° 0 mm 3 m/s 746 mmHg 55%
11:00 +17°C° 0 mm 3 m/s 746 mmHg 50%
12:00 +19°C° 0 mm 3 m/s 746 mmHg 44%
13:00 +19°C° 0 mm 3 m/s 746 mmHg 43%
14:00 +20°C° 0 mm 3 m/s 745 mmHg 41%
15:00 +20°C° 0 mm 3 m/s 745 mmHg 40%
16:00 +19°C° 0 mm 3 m/s 745 mmHg 44%
17:00 +19°C° 0 mm 2 m/s 745 mmHg 49%
18:00 +18°C° 0 mm 2 m/s 744 mmHg 53%
19:00 +17°C° 0 mm 2 m/s 744 mmHg 57%
20:00 +15°C° 0 mm 2 m/s 744 mmHg 60%
21:00 +14°C° 0 mm 2 m/s 744 mmHg 63%
22:00 +14°C° 0 mm 2 m/s 744 mmHg 64%
23:00 +13°C° 0 mm 2 m/s 744 mmHg 66%

16 Abril, Sexta-feira

Tempo Temperatura Precipitação Vento Pressão Humidade
00:00 +12°C° 0 mm 2 m/s 744 mmHg 67%
01:00 +12°C° 0 mm 2 m/s 744 mmHg 68%
02:00 +12°C° 0 mm 1 m/s 744 mmHg 69%
03:00 +11°C° 0 mm 1 m/s 743 mmHg 70%
04:00 +11°C° 0 mm 1 m/s 743 mmHg 70%
05:00 +11°C° 0 mm 1 m/s 743 mmHg 70%
06:00 +10°C° 0 mm 2 m/s 743 mmHg 71%
07:00 +13°C° 0 mm 2 m/s 744 mmHg 65%
08:00 +14°C° 0 mm 2 m/s 744 mmHg 58%
09:00 +16°C° 0 mm 2 m/s 744 mmHg 52%
10:00 +17°C° 0 mm 2 m/s 744 mmHg 48%
11:00 +18°C° 0 mm 2 m/s 744 mmHg 43%
12:00 +19°C° 0 mm 2 m/s 744 mmHg 39%
13:00 +20°C° 0 mm 2 m/s 744 mmHg 37%
14:00 +20°C° 0 mm 2 m/s 743 mmHg 36%
15:00 +20°C° 0 mm 2 m/s 743 mmHg 34%
16:00 +19°C° 0 mm 2 m/s 743 mmHg 39%
17:00 +19°C° 0 mm 2 m/s 743 mmHg 45%
18:00 +18°C° 0 mm 2 m/s 743 mmHg 50%
19:00 +16°C° 0 mm 2 m/s 744 mmHg 54%
20:00 +15°C° 0 mm 2 m/s 744 mmHg 59%
21:00 +13°C° 0 mm 3 m/s 744 mmHg 64%
22:00 +13°C° 0 mm 4 m/s 744 mmHg 69%
23:00 +12°C° 0 mm 4 m/s 744 mmHg 74%

17 Abril, Sábado

Tempo Temperatura Precipitação Vento Pressão Humidade
00:00 +10°C° 0 mm 5 m/s 745 mmHg 78%
01:00 +10°C° 0 mm 5 m/s 745 mmHg 79%
02:00 +9°C° 0 mm 6 m/s 745 mmHg 80%
03:00 +8°C° 0 mm 6 m/s 746 mmHg 81%
04:00 +7°C° 0 mm 6 m/s 746 mmHg 81%
05:00 +5°C° 0 mm 6 m/s 746 mmHg 81%
06:00 +5°C° 0 mm 6 m/s 747 mmHg 80%
07:00 +5°C° 0 mm 6 m/s 747 mmHg 71%
08:00 +7°C° 0 mm 6 m/s 747 mmHg 62%
09:00 +6°C° 0 mm 7 m/s 747 mmHg 52%
10:00 +8°C° 0 mm 7 m/s 748 mmHg 46%
11:00 +9°C° 0 mm 7 m/s 748 mmHg 40%
12:00 +9°C° 0 mm 7 m/s 748 mmHg 33%
13:00 +10°C° 0 mm 7 m/s 748 mmHg 33%
14:00 +10°C° 0 mm 7 m/s 749 mmHg 32%
15:00 +10°C° 0 mm 7 m/s 749 mmHg 31%
16:00 +9°C° 0 mm 7 m/s 749 mmHg 34%
17:00 +9°C° 0 mm 7 m/s 749 mmHg 38%
18:00 +8°C° 0 mm 6 m/s 750 mmHg 41%
19:00 +6°C° 0 mm 7 m/s 750 mmHg 42%
20:00 +4°C° 0 mm 7 m/s 751 mmHg 43%
21:00 +3°C° 0 mm 7 m/s 751 mmHg 45%
22:00 +2°C° 0 mm 7 m/s 752 mmHg 47%
23:00 +1°C° 0 mm 6 m/s 752 mmHg 50%
Mostrar mais